Weather History for Ravenna, OH

Change the Weather History Date:

Sunday, December 9, 2012

  Actual Average (KCAK) Record (KCAK)
Temperature  
Mean Temperature 44 °F 32 °F  
Max Temperature 54 °F 39 °F 62 °F (1952)
Min Temperature 34 °F 26 °F -7 °F (1917)
Degree Days  
Heating Degree Days 21 33  
Month to date heating degree days 281  
Since 1 July heating degree days 1540  
Cooling Degree Days 0 0  
Month to date cooling degree days 0  
Year to date cooling degree days 652  
Moisture  
Dew Point 38 °F    
Average Humidity 90    
Maximum Humidity 100    
Minimum Humidity 76    
Precipitation  
Precipitation 0.38 in 0.10 in 0.58 in (1956)
Month to date precipitation 0.89  
Year to date precipitation 37.67  
Snow  
Snow 0.00 in 0.40 in - ()
Month to date snowfall 2.5  
Since 1 July snowfall 5.9  
Snow Depth -    
Sea Level Pressure  
Sea Level Pressure 29.97 in    
Wind  
Wind Speed 8 mph (ESE)    
Max Wind Speed 12 mph    
Max Gust Speed 16 mph    
Visibility 8 miles    
Events Rain    
T = Trace of Precipitation, MM = Missing Value Source: NWS Daily Summary

Daily Weather History Graph

Daily Weather History Graph

Search for Another Location

Airport:

Trip Planner

Search our weather history database for the weather conditions in past years. The results will help you decide how hot, cold, wet, or windy it might be!

Date:

Astronomy

Dec. 09, 2012 Rise Set
Actual Time 7:39 AM EST 4:55 PM EST
Civil Twilight 7:08 AM EST 5:27 PM EST
Nautical Twilight 6:33 AM EST 6:01 PM EST
Astronomical Twilight 6:00 AM EST 6:35 PM EST
Moon 3:08 AM EST (12/9) 2:03 PM EST (12/9)
Length of Visible Light 10h 18m
Length of Day
9h 16m
Waning Crescent, 19% of the Moon is Illuminated
Dec 9
Waning Crescent
Dec 13
New
Dec 20
First Quarter
Dec 28
Full
Jan 4
Last Quarter

Hourly Weather History & Observations

Time (EST) Temp. Windchill Dew Point Humidity Pressure Visibility Wind Dir Wind Speed Gust Speed Precip Events Conditions
12:15 AM 36.7 °F 30.5 °F 31.5 °F 81% 30.11 in 10.0 mi NNE 8.1 mph - N/A   Overcast
12:35 AM 36.7 °F 32.0 °F 31.8 °F 83% 30.12 in 10.0 mi North 5.8 mph - N/A   Overcast
12:55 AM 36.5 °F 31.0 °F 32.0 °F 84% 30.12 in 10.0 mi NE 6.9 mph - N/A   Overcast
1:15 AM 36.0 °F 29.6 °F 31.3 °F 83% 30.12 in 10.0 mi NE 8.1 mph - N/A   Overcast
1:35 AM 36.0 °F 30.3 °F 31.8 °F 85% 30.13 in 10.0 mi ENE 6.9 mph - N/A   Overcast
1:56 AM 35.8 °F 28.3 °F 31.1 °F 83% 30.13 in 10.0 mi NE 10.4 mph - N/A   Overcast
2:15 AM 35.6 °F 27.5 °F 30.7 °F 82% 30.13 in 10.0 mi NE 11.5 mph - N/A   Overcast
2:35 AM 35.6 °F 28.0 °F 30.4 °F 81% 30.14 in 10.0 mi ENE 10.4 mph 16.1 mph N/A   Overcast
2:55 AM 35.2 °F 28.8 °F 30.4 °F 82% 30.14 in 10.0 mi ENE 8.1 mph - N/A   Overcast
3:15 AM 35.2 °F 28.1 °F 30.6 °F 83% 30.14 in 10.0 mi ENE 9.2 mph - N/A   Overcast
3:35 AM 35.2 °F 27.6 °F 30.7 °F 84% 30.14 in 10.0 mi ENE 10.4 mph - N/A   Overcast
3:55 AM 34.9 °F 27.7 °F 30.6 °F 84% 30.13 in 10.0 mi ENE 9.2 mph - N/A   Overcast
4:15 AM 34.7 °F 26.9 °F 30.2 °F 84% 30.13 in 10.0 mi ENE 10.4 mph - N/A   Overcast
4:35 AM 34.7 °F 28.1 °F 30.7 °F 85% 30.14 in 10.0 mi ENE 8.1 mph - N/A   Overcast
4:56 AM 34.9 °F 28.3 °F 31.1 °F 86% 30.14 in 10.0 mi East 8.1 mph - N/A   Overcast
5:15 AM 34.7 °F 29.6 °F 31.1 °F 87% 30.14 in 10.0 mi East 5.8 mph - N/A   Overcast
5:35 AM 34.7 °F 28.8 °F 31.6 °F 89% 30.13 in 10.0 mi East 6.9 mph - N/A   Overcast
5:55 AM 34.7 °F 27.5 °F 31.6 °F 89% 30.12 in 10.0 mi ENE 9.2 mph - N/A   Overcast
6:15 AM 34.5 °F 27.9 °F 31.5 °F 89% 30.12 in 10.0 mi ENE 8.1 mph - N/A   Overcast
6:35 AM 34.7 °F 28.8 °F 31.5 °F 88% 30.12 in 10.0 mi ENE 6.9 mph - N/A   Overcast
6:55 AM 34.7 °F 28.8 °F 31.6 °F 89% 30.13 in 10.0 mi East 6.9 mph - N/A   Overcast
7:15 AM 34.7 °F 26.9 °F 31.6 °F 89% 30.13 in 10.0 mi East 10.4 mph - N/A   Overcast
7:35 AM 34.7 °F 27.5 °F 31.6 °F 89% 30.12 in 10.0 mi ENE 9.2 mph - N/A   Overcast
7:56 AM 34.7 °F 28.1 °F 31.8 °F 89% 30.13 in 10.0 mi East 8.1 mph - N/A   Overcast
8:15 AM 34.7 °F 27.5 °F 31.6 °F 89% 30.12 in 10.0 mi East 9.2 mph - N/A   Overcast
8:35 AM 34.3 °F 27.7 °F 31.3 °F 89% 30.11 in 10.0 mi ENE 8.1 mph - N/A   Overcast
8:55 AM 34.9 °F 28.3 °F 31.8 °F 89% 30.10 in 10.0 mi East 8.1 mph - N/A   Overcast
9:15 AM 35.1 °F 27.9 °F 31.8 °F 88% 30.10 in 10.0 mi East 9.2 mph - N/A   Overcast
9:35 AM 35.4 °F 27.3 °F 32.0 °F 87% 30.09 in 10.0 mi East 11.5 mph - N/A   Overcast
9:55 AM 35.6 °F 28.0 °F 32.0 °F 87% 30.09 in 10.0 mi East 10.4 mph - N/A   Overcast
10:15 AM 36.0 °F 28.5 °F 32.0 °F 86% 30.09 in 10.0 mi East 10.4 mph - N/A   Overcast
10:35 AM 35.6 °F 28.6 °F 32.0 °F 87% 30.06 in 10.0 mi East 9.2 mph - N/A   Mostly Cloudy
10:55 AM 37.2 °F 30.6 °F 32.7 °F 84% 30.06 in 10.0 mi East 9.2 mph - N/A   Mostly Cloudy
11:35 AM 39.2 °F 32.0 °F 32.9 °F 78% 30.03 in 10.0 mi East 11.5 mph - N/A   Overcast
11:55 AM 40.3 °F 34.9 °F 34.0 °F 78% 30.00 in 10.0 mi East 8.1 mph - N/A   Overcast
12:15 PM 40.8 °F 36.2 °F 34.0 °F 77% 30.00 in 10.0 mi ESE 6.9 mph - N/A   Overcast
12:35 PM 41.0 °F 36.4 °F 34.0 °F 76% 29.98 in 10.0 mi ESE 6.9 mph - N/A   Overcast
12:55 PM 41.5 °F 35.4 °F 34.3 °F 76% 29.98 in 10.0 mi ESE 10.4 mph - N/A   Overcast
1:15 PM 42.3 °F 36.8 °F 35.6 °F 77% 29.97 in 10.0 mi ESE 9.2 mph - N/A   Overcast
1:35 PM 42.8 °F 36.6 °F 36.5 °F 78% 29.94 in 10.0 mi ESE 11.5 mph - N/A   Overcast
1:55 PM 42.8 °F 37.0 °F 36.5 °F 78% 29.95 in 10.0 mi ESE 10.4 mph - N/A   Overcast
2:15 PM 43.0 °F 37.7 °F 36.7 °F 78% 29.94 in 10.0 mi ESE 9.2 mph - N/A   Overcast
2:35 PM 42.8 °F 38.6 °F 37.9 °F 83% 29.93 in 10.0 mi ESE 6.9 mph - N/A Rain Rain
2:56 PM 42.8 °F 38.0 °F 39.9 °F 90% 29.91 in 10.0 mi ESE 8.1 mph - N/A   Light Drizzle
3:15 PM 42.8 °F 38.0 °F 41.0 °F 93% 29.89 in 7.0 mi ESE 8.1 mph - N/A   Drizzle
3:35 PM 42.4 °F 37.0 °F 42.1 °F 99% 29.88 in 10.0 mi ESE 9.2 mph - 0.01 in Rain Rain
3:55 PM 42.1 °F 37.1 °F 42.3 °F 100% 29.87 in 4.0 mi ESE 8.1 mph - 0.08 in Rain Heavy Rain
4:15 PM 42.3 °F 36.3 °F 42.4 °F 100% 29.86 in 10.0 mi ESE 10.4 mph - 0.01 in   Overcast
4:35 PM 42.6 °F 38.4 °F 42.8 °F 100% 29.86 in 10.0 mi SE 6.9 mph - 0.01 in   Overcast
4:55 PM 42.8 °F 39.3 °F 43.0 °F 100% 29.85 in 10.0 mi SE 5.8 mph - 0.01 in   Overcast
5:15 PM 43.2 °F 39.7 °F 43.3 °F 100% 29.84 in 10.0 mi SE 5.8 mph - N/A   Overcast
5:35 PM 43.7 °F 39.7 °F 43.7 °F 100% 29.83 in 7.0 mi ESE 6.9 mph - N/A Rain Rain
5:55 PM 44.1 °F 40.8 °F 44.2 °F 100% 29.83 in 7.0 mi SSE 5.8 mph - N/A   Overcast
6:15 PM 45.0 °F 41.2 °F 45.1 °F 100% 29.82 in 7.0 mi SE 6.9 mph - N/A   Overcast
6:35 PM 45.9 °F 42.9 °F 46.0 °F 100% 29.82 in 7.0 mi SSE 5.8 mph - N/A   Overcast
6:55 PM 47.3 °F - 47.3 °F 100% 29.82 in 5.0 mi Calm Calm - N/A   Overcast
7:35 PM - - - N/A% 29.81 in 3.0 mi South 5.8 mph - N/A   Overcast
7:55 PM 49.5 °F - 49.6 °F 100% 29.80 in 3.0 mi South 4.6 mph - N/A   Overcast
8:15 PM 50.4 °F - 50.5 °F 100% 29.78 in 3.0 mi SSW 3.5 mph - N/A   Overcast
8:35 PM 50.9 °F - 50.9 °F 100% 29.78 in 2.0 mi SSW 3.5 mph - N/A   Overcast
8:55 PM 51.1 °F - 51.3 °F 100% 29.78 in 2.5 mi South 4.6 mph - 0.01 in Rain Heavy Rain
9:15 PM 51.3 °F - 51.4 °F 100% 29.77 in 2.5 mi SSW 4.6 mph - 0.01 in Rain Light Rain
9:35 PM 52.0 °F - 52.2 °F 100% 29.75 in 3.0 mi South 4.6 mph - 0.01 in Rain Light Rain
9:55 PM - - - N/A% 29.74 in 4.0 mi South 3.5 mph - 0.03 in Rain Rain
10:15 PM 52.9 °F - 53.1 °F 100% 29.73 in 5.0 mi South 5.8 mph - 0.01 in Rain Light Rain
10:35 PM 53.4 °F - 53.6 °F 100% 29.72 in 5.0 mi SSW 4.6 mph - 0.02 in Rain Light Rain
10:55 PM 53.8 °F - 54.0 °F 100% 29.72 in 5.0 mi South 3.5 mph - 0.04 in Rain Rain
11:15 PM 54.0 °F - 54.1 °F 100% 29.71 in 4.0 mi SSE 4.6 mph - 0.03 in Rain Rain
11:35 PM 54.0 °F - 54.1 °F 100% 29.70 in 4.0 mi South 6.9 mph - 0.07 in Rain Rain
11:55 PM 54.5 °F - 54.7 °F 100% 29.69 in 2.5 mi SSW 3.5 mph - 0.21 in Rain Heavy Rain